"Pseudo-MPEC" for P11l8T5

Created 2021 Sep 20 17:07:10 UT using Find_Orb

Click here for an explanation of pseudo-MPECs

 
 Astrometry: 
     P11l8T5  C2021 09 13E'cY:]no7PC[^O\aoAstrometrygru;EPc_uWDUdi7'H+?pVwk_MF51
     P11l8T5  C2021 09 13kuh``5W_?tD:RBJredacted;p1aR3Fq]M]wBJ/qlJ4,9EkYtis1CF51
     P11l8T5  C2021 09 13vv^Nc*yF*L^(DZ,TRSX@_Ke+*_tXe,U\nDFRDF]J*?oe%#=25]r`F51
     P11l8T5  C2021 09 15#EQW[7fQtZvtgt@JclickDKC9jp-5+Dal7ohereHR-4)[I%U6Su:F51
     P11l8T5  C2021 09 15x7kj9bQ(mOi_P-PFWxxg\y6;TLo)fmfor*#^NpynUB-_*8`a68%WF51
     P11l8T5  C2021 09 15tXm6fs+o9RSp6\Ak@_qlexplanation1F^qau/@,^xTtMY4A1A7!F51

Station data:
(F51) Pan-STARRS 1, Haleakala  (N20.707235 W156.255910)  US/Hawaii.
   Observers N. Primak, A. Schultz, S. Watters, J. Thiel, T. Goggia. Measurer
   PS1 Science Consortium. 1.8-m Ritchey-Chrétien + CCD.

Orbital elements:  P11l8T5
   Perihelion 2020 Nov 27.176459 +/- 344.712 TT =  4:14:06 (JD 2459180.676459)
Epoch 2021 Sep 15.0 TT = JDT 2459472.5   Earth MOID: 0.6564   Ma: 0.0644
M 115.19374288 +/- 105.22426        (J2000 ecliptic)          AutoNEOCP
n   0.39473766 +/- 0.120107         Peri.   17.88687 +/- 67.850916
a   1.84047675 +/- 0.373329         Node   208.14173 +/- 17.867793
e   0.0991722 +/- 0.159721          Incl.   18.76827 +/- 21.174180
P   2.50/911.98d           H 20.7   G  0.15   U 11.3  SR
q 1.65795252 +/- 0.535029    Q 2.02300099 +/- 1.25647
From 6 observations 2021 Sept. 13-15; mean residual 0".31
Residuals in arcseconds: 
210913 F51  .09-  .05-    210913 F51  .08+  .05+    210915 F51  .75+  .02+    
210913 F51  .01+  .00     210915 F51  .65-  .22+    210915 F51  .11-  .24-    

Ephemerides (geocentric):
Date (UTC) HH   RA              Dec         delta   r     elong  mag " sig PA
---- -- -- --  -------------   -----------  ------ ------ -----  --- ---- ---
2021 09 20 17  22 51 30.989   +16 15 55.09  .97230 1.9379 157.3 22.8  222 117
2021 09 20 18  22 51 28.982   +16 15 04.11  .97237 1.9379 157.3 22.8  225 117
2021 09 20 19  22 51 26.977   +16 14 13.10  .97245 1.9380 157.3 22.8  228 117
2021 09 20 20  22 51 24.974   +16 13 22.07  .97253 1.9380 157.3 22.8  231 117
2021 09 20 21  22 51 22.973   +16 12 31.03  .97261 1.9380 157.3 22.8  234 117
2021 09 20 22  22 51 20.975   +16 11 39.96  .97269 1.9381 157.3 22.8  238 117
2021 09 20 23  22 51 18.978   +16 10 48.88  .97277 1.9381 157.3 22.8  241 117
2021 09 21 00  22 51 16.985   +16 09 57.78  .97285 1.9382 157.3 22.8  244 117
2021 09 21 01  22 51 14.993   +16 09 06.66  .97293 1.9382 157.3 22.8  247 117
2021 09 21 02  22 51 13.004   +16 08 15.52  .97301 1.9383 157.3 22.8  250 117
2021 09 21 03  22 51 11.017   +16 07 24.36  .97309 1.9383 157.3 22.8  253 117
2021 09 21 04  22 51 09.033   +16 06 33.18  .97317 1.9383 157.2 22.8  257 117
2021 09 21 05  22 51 07.051   +16 05 41.99  .97325 1.9384 157.2 22.8  260 117
2021 09 21 06  22 51 05.071   +16 04 50.77  .97333 1.9384 157.2 22.8  263 117
2021 09 21 07  22 51 03.093   +16 03 59.54  .97342 1.9385 157.2 22.8  266 117
2021 09 21 08  22 51 01.118   +16 03 08.29  .97350 1.9385 157.2 22.8  270 117
2021 09 21 09  22 50 59.145   +16 02 17.02  .97358 1.9385 157.2 22.8  273 117
2021 09 21 10  22 50 57.175   +16 01 25.74  .97367 1.9386 157.2 22.8  276 117
2021 09 21 11  22 50 55.206   +16 00 34.43  .97375 1.9386 157.2 22.8  280 117
2021 09 21 12  22 50 53.241   +15 59 43.11  .97384 1.9387 157.2 22.8  283 117
2021 09 21 13  22 50 51.277   +15 58 51.77  .97392 1.9387 157.2 22.8  287 117
2021 09 21 14  22 50 49.316   +15 58 00.42  .97401 1.9388 157.2 22.8  290 117
2021 09 21 15  22 50 47.357   +15 57 09.04  .97409 1.9388 157.2 22.8  294 117
2021 09 21 16  22 50 45.401   +15 56 17.65  .97418 1.9388 157.1 22.8  297 117
2021 09 21 17  22 50 43.447   +15 55 26.24  .97427 1.9389 157.1 22.8  301 117
2021 09 21 18  22 50 41.496   +15 54 34.82  .97435 1.9389 157.1 22.8  304 117
2021 09 21 19  22 50 39.547   +15 53 43.37  .97444 1.9390 157.1 22.8  308 117
2021 09 21 20  22 50 37.600   +15 52 51.91  .97453 1.9390 157.1 22.8  311 117
2021 09 21 21  22 50 35.656   +15 52 00.44  .97462 1.9391 157.1 22.8  315 117
2021 09 21 22  22 50 33.714   +15 51 08.95  .97471 1.9391 157.1 22.8  318 117
2021 09 21 23  22 50 31.774   +15 50 17.44  .97479 1.9391 157.1 22.8  322 117
2021 09 22 00  22 50 29.837   +15 49 25.91  .97488 1.9392 157.1 22.8  326 117
2021 09 22 01  22 50 27.903   +15 48 34.37  .97497 1.9392 157.1 22.8  329 117
2021 09 22 02  22 50 25.970   +15 47 42.81  .97506 1.9393 157.0 22.8  333 117
2021 09 22 03  22 50 24.041   +15 46 51.23  .97516 1.9393 157.0 22.8  337 117
2021 09 22 04  22 50 22.113   +15 45 59.64  .97525 1.9393 157.0 22.8  340 117
2021 09 22 05  22 50 20.188   +15 45 08.03  .97534 1.9394 157.0 22.8  344 117
2021 09 22 06  22 50 18.266   +15 44 16.41  .97543 1.9394 157.0 22.8  348 117
2021 09 22 07  22 50 16.346   +15 43 24.77  .97552 1.9395 157.0 22.8  352 117
2021 09 22 08  22 50 14.429   +15 42 33.12  .97562 1.9395 157.0 22.8  355 117
2021 09 22 09  22 50 12.514   +15 41 41.45  .97571 1.9396 157.0 22.8  359 117
2021 09 22 10  22 50 10.601   +15 40 49.76  .97580 1.9396 157.0 22.8  363 117
2021 09 22 11  22 50 08.691   +15 39 58.06  .97590 1.9396 156.9 22.8  367 117
2021 09 22 12  22 50 06.783   +15 39 06.34  .97599 1.9397 156.9 22.8  371 117
2021 09 22 13  22 50 04.878   +15 38 14.61  .97609 1.9397 156.9 22.8  375 117
2021 09 22 14  22 50 02.976   +15 37 22.86  .97618 1.9398 156.9 22.8  378 117
2021 09 22 15  22 50 01.075   +15 36 31.10  .97628 1.9398 156.9 22.8  382 117
2021 09 22 16  22 49 59.178   +15 35 39.32  .97637 1.9398 156.9 22.8  386 117